Погода в Улькан

Россия / Иркутская область     55°54′18″N   107°47′58″E
темп.,
°C
ветер,
м/с
пор.,
м/с
влажн.,
%
обл.,
%
осадки,
мм/ч
давл.,
гПа
погр.,
м
11 апреля, вс
вс1123:00−12сз229751 0.0 103735
02:00−14ссз139743 0.0 103848
05:00−16с129982 0.0 104040
08:00−10с4888100 0.1 1040537
11:00−7с4661100 0.1 10401380
14:00−4с3652100 0.1 10381860
17:00−3ссв2455100 0.0 10361381
20:00−8юв119081 0.0 103818
12 апреля, пн
пн1223:00−9ююв129097 0.0 103841
02:00−12ююв229528 0.0 103735
05:00−10ююв2689100 0.0 1036125
08:00−7ююв3679100 0.0 1034274
11:00−3ю4573100 0.1 1032718
14:000ююв3363100 0.1 10291153
17:00+1ююв336089 0.0 10271103
20:00−4ююв118998 0.0 102810
13 апреля, вт
вт1323:00−6ююв229288 0.0 102839
02:00−7ююв259130 0.0 102699
05:00−8ююв27936 0.0 1024129
08:00−4ююв5137998 0.0 1021436
11:00+1ю61172100 0.0 1016986
14:00+1ю61289100 0.4 1013866
17:00+1юз3897100 1.9 1012552
20:00−2сз2688100 2.2 1015117
14 апреля, ср
ср1423:00−6зюз129493 0.0 101844
02:00−7ююв1197100 0.0 101820
05:00−5ю2394100 0.0 101765
08:00−2юз2585100 0.6 1017418
11:00+1з4560100 0.3 10151383
14:00+2з2557100 0.9 10131405
17:00+1зсз3568100 0.9 10131072
20:00−2зюз1187100 1.6 101418
15 апреля, чт
чт1523:00−4ю1297100 0.4 101441
02:00−3ююз2596100 1.8 1013330
05:00−3сз4978100 0.7 1014779
08:00−3сз3873100 0.8 1015737
11:000ссз3557100 0.2 10151562
14:00+2ссз344780 0.9 10141777
17:00+2сз3450100 0.4 10151441
20:00−3з118287 0.7 101710